AJISAI (EGS)            
1 16908U 86061A   19258.54325233 -.00000091  00000-0  43807-4 0  9994
2 16908  50.0085 172.0715 0011505  22.2953 335.5171 12.44490450173584
JAS-1 (FO-12)           
1 16909U 86061B   19258.00904373 -.00000101  00000-0 -25074-4 0  9993
2 16909  50.0148 178.3721 0011245   5.6394  83.1223 12.44469524504890
H-1 R/B(MABES)          
1 16910U 86061C   19258.65438337 -.00000080  00000-0  11210-3 0  9999
2 16910  50.0032 274.6326 0072277 249.4483 247.4433 12.32585452490487